(15) Eunomia

Orbital Elements

The following orbital elements are taken from MPO 25662
   (15) Eunomia
Epoch 2002 May 6.0 TT = JDT 2452400.5                   Goffin
M 303.06205              (2000.0)            P               Q
n   0.22917124     Peri.   97.10312     +0.84172274     -0.50659102
a   2.6446161      Node   293.49190     +0.37899717     +0.80071815
e   0.1855895      Incl.   11.74793     +0.38453086     +0.31971235
P   4.30           H    5.28          G   0.23           U   0
From 2071 observations at 91 oppositions, 1851-2001, mean residual 0".52.
An explanation of the orbital elements is available.

These orbital elements are also available in forms suitable for loading into a number of popular planetarium-type software programs.


Ephemeris

The following ephemeris is at intervals of five days. A daily ephemeris covering the same time interval is also available.

Date    TT    R. A. (2000) Decl.     Delta      r     Elong.  Phase     V
 
2002 06 15    23 10.11   +02 09.1    2.072    2.375    94.3    25.2     9.8
2002 06 20    23 14.24   +03 07.7    2.005    2.366    97.7    25.2     9.7
2002 06 25    23 17.96   +04 05.5    1.938    2.357   101.2    25.0     9.6
2002 06 30    23 21.23   +05 02.4    1.873    2.348   104.8    24.8     9.5
2002 07 05    23 24.02   +05 58.1    1.810    2.339   108.4    24.4     9.4
2002 07 10    23 26.28   +06 52.3    1.748    2.331   112.2    23.8     9.3
2002 07 15    23 27.96   +07 44.6    1.688    2.322   116.1    23.1     9.2
2002 07 20    23 29.05   +08 34.7    1.630    2.314   120.2    22.3     9.1
2002 07 25    23 29.49   +09 22.2    1.575    2.305   124.3    21.3     9.0
2002 07 30    23 29.27   +10 06.6    1.523    2.297   128.6    20.2     8.9
2002 08 04    23 28.36   +10 47.4    1.475    2.290   132.9    18.9     8.8
2002 08 09    23 26.74   +11 24.0    1.430    2.282   137.4    17.5     8.7
2002 08 14    23 24.44   +11 55.7    1.389    2.274   141.9    16.0     8.6
2002 08 19    23 21.49   +12 22.1    1.353    2.267   146.4    14.3     8.4
2002 08 24    23 17.96   +12 42.7    1.322    2.260   150.8    12.6     8.3
2002 08 29    23 13.92   +12 57.1    1.297    2.253   154.9    10.9     8.2
2002 09 03    23 09.50   +13 05.0    1.276    2.246   158.5     9.5     8.1
2002 09 08    23 04.83   +13 06.5    1.262    2.239   161.0     8.4     8.1
2002 09 13    23 00.07   +13 01.7    1.254    2.233   162.1     8.0     8.0
2002 09 18    22 55.42   +12 51.3    1.251    2.226   161.3     8.3     8.0
2002 09 23    22 51.02   +12 36.0    1.255    2.220   158.9     9.4     8.1
2002 09 28    22 47.04   +12 16.9    1.264    2.215   155.4    10.9     8.1
2002 10 03    22 43.61   +11 54.9    1.279    2.209   151.2    12.6     8.2
2002 10 08    22 40.84   +11 31.3    1.299    2.204   146.7    14.4     8.3
2002 10 13    22 38.82   +11 07.2    1.324    2.199   142.1    16.2     8.4
2002 10 18    22 37.60   +10 43.8    1.354    2.194   137.5    17.9     8.5
2002 10 23    22 37.21   +10 21.9    1.387    2.189   132.9    19.5     8.6
2002 10 28    22 37.64   +10 02.3    1.425    2.185   128.4    20.9     8.7
2002 11 02    22 38.88   +09 45.5    1.465    2.181   124.0    22.2     8.8
2002 11 07    22 40.90   +09 32.2    1.509    2.177   119.7    23.3     8.9
2002 11 12    22 43.66   +09 22.5    1.555    2.174   115.6    24.3     8.9
2002 11 17    22 47.13   +09 16.8    1.603    2.171   111.5    25.1     9.0
2002 11 22    22 51.25   +09 15.1    1.653    2.168   107.7    25.7     9.1
2002 11 27    22 55.96   +09 17.4    1.704    2.165   103.9    26.3     9.2
2002 12 02    23 01.22   +09 23.7    1.757    2.163   100.3    26.7     9.3
2002 12 07    23 07.00   +09 33.8    1.810    2.160    96.8    26.9     9.3
2002 12 12    23 13.25   +09 47.7    1.864    2.159    93.3    27.1     9.4

Back to Bright Minor Planets

Astronomical Headlines Index

MPC